DW6949 Weather Reports


Display with metric or nautical units.
time (UTC)temp
F
wind
direction
speed
MPH
gust
MPH
rain 1hr
in
rain 24hr
in
rain mn
in
humidity
%
barometer
mb
20220926181558 89 0 0.0 0.0 0.00 0.00 0.00 57 1016.4
20220926180055 88 0 0.0 0.0 0.00 0.00 0.00 58 1016.4
20220926174625 87 0 0.0 0.0 0.00 0.00 0.00 58 1016.5
20220926173346 87 0 0.0 0.0 0.00 0.00 0.00 60 1016.8
20220926171607 86 0 0.0 0.0 0.00 0.00 0.00 61 1016.8
20220926170048 86 0 0.0 0.0 0.00 0.00 0.00 63 1017.0
20220926164611 85 0 0.0 0.0 0.00 0.00 0.00 64 1017.1
20220926163047 84 0 0.0 0.0 0.00 0.00 0.00 64 1017.0
20220926161604 84 0 0.0 0.0 0.00 0.00 0.00 65 1017.0
20220926160053 83 0 0.0 0.0 0.00 0.00 0.00 67 1017.3
20220926154557 83 0 0.0 0.0 0.00 0.00 0.00 67 1017.3
20220926153051 82 0 0.0 0.0 0.00 0.00 0.00 68 1017.1
20220926151605 81 0 0.0 0.0 0.00 0.00 0.00 70 1017.1
20220926150050 81 0 0.0 0.0 0.00 0.00 0.00 71 1017.0
20220926144549 80 0 0.0 0.0 0.00 0.00 0.00 72 1016.8
20220926143056 79 0 0.0 0.0 0.00 0.00 0.00 73 1016.8
20220926141558 78 0 0.0 0.0 0.00 0.00 0.00 75 1016.5
20220926140106 77 0 0.0 0.0 0.00 0.00 0.00 76 1016.6
20220926134548 77 0 0.0 0.0 0.00 0.00 0.00 77 1016.5
20220926133048 76 0 0.0 0.0 0.00 0.00 0.00 80 1016.2
20220926131553 76 0 0.0 0.0 0.00 0.00 0.00 82 1016.2
20220926130059 75 0 0.0 0.0 0.00 0.00 0.00 84 1016.1
20220926124607 75 0 0.0 0.0 0.00 0.00 0.00 84 1015.9
20220926123121 75 0 0.0 0.0 0.00 0.00 0.00 85 1015.6
20220926121601 75 0 0.0 0.0 0.00 0.00 0.00 84 1015.4
20220926120051 75 0 0.0 0.0 0.00 0.00 0.00 84 1015.3
20220926114549 76 0 0.0 0.0 0.00 0.00 0.00 83 1015.2
20220926113121 76 0 0.0 0.0 0.00 0.00 0.00 83 1015.2
20220926111547 77 0 0.0 0.0 0.00 0.00 0.00 83 1015.3
20220926110052 77 0 0.0 0.0 0.00 0.00 0.00 83 1015.3
20220926104551 77 0 0.0 0.0 0.00 0.00 0.00 83 1015.3
20220926103054 77 0 0.0 0.0 0.00 0.00 0.00 84 1015.2
20220926101608 77 0 0.0 0.0 0.00 0.00 0.00 84 1015.3
20220926100106 77 0 0.0 0.0 0.00 0.00 0.00 84 1015.2
20220926094559 77 0 0.0 0.0 0.00 0.00 0.00 84 1015.0
20220926093106 77 0 0.0 0.0 0.00 0.00 0.00 84 1015.0
20220926091556 77 0 0.0 0.0 0.00 0.00 0.00 84 1014.9
20220926090055 77 0 0.0 0.0 0.00 0.00 0.00 84 1015.0
20220926084558 77 0 0.0 0.0 0.00 0.00 0.00 84 1014.9
20220926083138 77 0 0.0 0.0 0.00 0.00 0.00 84 1014.8
20220926081611 77 0 0.0 0.0 0.00 0.00 0.00 83 1014.9
20220926080104 77 0 0.0 0.0 0.00 0.00 0.00 83 1015.1
20220926074604 76 0 0.0 0.0 0.00 0.00 0.00 83 1015.0
20220926073104 76 0 0.0 0.0 0.00 0.00 0.00 83 1015.0
20220926071557 76 0 0.0 0.0 0.00 0.00 0.00 82 1014.9
20220926070101 76 0 0.0 0.0 0.00 0.00 0.00 82 1014.9
20220926064548 76 0 0.0 0.0 0.00 0.00 0.00 82 1014.9
20220926063055 77 0 0.0 0.0 0.00 0.00 0.00 81 1015.1
20220926061555 77 0 0.0 0.0 0.00 0.00 0.00 81 1015.4
20220926060056 77 0 0.0 0.0 0.00 0.00 0.00 81 1015.3
20220926054613 77 0 0.0 0.0 0.00 0.00 0.00 80 1015.4
20220926053052 78 0 0.0 0.0 0.00 0.00 0.00 80 1015.4
20220926051558 78 0 0.0 0.0 0.00 0.00 0.00 79 1015.5
20220926050107 79 0 0.0 0.0 0.00 0.00 0.00 78 1015.4
20220926044603 79 0 0.0 0.0 0.00 0.00 0.00 78 1015.4
20220926043053 80 0 0.0 0.0 0.00 0.00 0.00 77 1015.4
20220926041547 80 0 0.0 0.0 0.00 0.00 0.00 76 1015.4
20220926040105 81 0 0.0 0.0 0.00 0.00 0.00 76 1015.2
20220926034547 81 0 0.0 0.0 0.00 0.00 0.00 75 1015.3
20220926033057 82 0 0.0 0.0 0.00 0.00 0.00 76 1015.3
20220926031603 82 0 0.0 0.0 0.00 0.00 0.00 75 1015.1
20220926030105 83 0 0.0 0.0 0.00 0.00 0.00 73 1014.9
20220926024608 83 0 0.0 0.0 0.00 0.00 0.00 71 1014.5
20220926023107 84 0 0.0 0.0 0.00 0.00 0.00 69 1014.5
20220926021549 85 0 0.0 0.0 0.00 0.00 0.00 63 1014.3
20220926020101 85 0 0.0 0.0 0.00 0.00 0.00 63 1014.0
20220926014605 86 0 0.0 0.0 0.00 0.00 0.00 61 1013.7
20220926013052 86 0 0.0 0.0 0.00 0.00 0.00 61 1013.5
20220926011550 87 0 0.0 0.0 0.00 0.00 0.00 56 1013.4
20220926010059 87 0 0.0 0.0 0.00 0.00 0.00 56 1013.3
20220926004549 88 0 0.0 0.0 0.00 0.00 0.00 54 1013.3
20220926003055 90 0 0.0 0.0 0.00 0.00 0.00 53 1013.1
20220926001551 90 0 0.0 0.0 0.00 0.00 0.00 51 1012.9
20220926000052 91 0 0.0 0.0 0.00 0.00 0.00 50 1012.7
20220925234557 93 0 0.0 0.0 0.00 0.00 0.00 48 1012.9
20220925233053 94 0 0.0 0.0 0.00 0.00 0.00 47 1012.8
20220925231548 94 0 0.0 0.0 0.00 0.00 0.00 48 1012.9
20220925230058 93 0 0.0 0.0 0.00 0.00 0.00 47 1012.8
20220925224551 93 0 0.0 0.0 0.00 0.00 0.00 48 1012.9
20220925223050 93 0 0.0 0.0 0.00 0.00 0.00 49 1013.0
20220925221644 92 0 0.0 0.0 0.00 0.00 0.00 50 1013.0
20220925220055 92 0 0.0 0.0 0.00 0.00 0.00 50 1013.1
20220925214612 91 0 0.0 0.0 0.00 0.00 0.00 49 1013.1
20220925213048 91 0 0.0 0.0 0.00 0.00 0.00 50 1013.1
20220925211557 92 0 0.0 0.0 0.00 0.00 0.00 51 1013.3
20220925210047 92 0 0.0 0.0 0.00 0.00 0.00 49 1013.5
20220925204554 92 0 0.0 0.0 0.00 0.00 0.00 48 1013.6
20220925203057 93 0 0.0 0.0 0.00 0.00 0.00 47 1013.6
20220925201551 93 0 0.0 0.0 0.00 0.00 0.00 48 1013.8
20220925200055 93 0 0.0 0.0 0.00 0.00 0.00 48 1014.0
20220925194548 94 0 0.0 0.0 0.00 0.00 0.00 47 1014.1
20220925193100 94 0 0.0 0.0 0.00 0.00 0.00 44 1014.2
20220925191552 92 0 0.0 0.0 0.00 0.00 0.00 51 1014.4
20220925190047 91 0 0.0 0.0 0.00 0.00 0.00 52 1014.5
20220925184551 91 0 0.0 0.0 0.00 0.00 0.00 53 1015.0
20220925183103 92 0 0.0 0.0 0.00 0.00 0.00 53 1015.2